DRAGON FREEDOM 3

导读

DRAGON FREEDOM 3是美国于2026年2月13日发射的卫星,延续了“龙”系列航天器对自由探索太空的命名精神。作为美国商业航天领域的最新发射任务,它大概率服务于低轨卫星星座组网,可能承担通信增强、地球观测或技术试验等功能,体现了美国商业航天持续推进太空基础设施部署的节奏,进一步丰富了近地轨道的卫星资产布局。

Basic Information
目录编号:
67796
目录名称:
DRAGON FREEDOM 3
国际标识:
2026-031A
轨道中心:
EARTH
卫星名称:
DRAGON FREEDOM 3
卫星全名:
DRAGON FREEDOM 3
卫星状态:
在轨 (已飞行204 天)
发射日期:
2026-02-13 UTC
国别 :
美国 (US)
星等 :
--
Orbit Information
数据来源 国际轨道数据
星历时间: 2026-09-05T12:13:20+0800
8小时前
查看轨道信息
半长轴: 6797.808km
偏心率: 0.0005041
轨道倾角: 51.631°
近地点辐角 108.556°
升交点赤经 264.201°
平近点角 251.597°
近地点: 416.244km
远地点: 423.098km
周期: 92.964分钟
每日圈数: 15.489929
Detailed Information
使用方式:
暂无
2D Orbit Map
3D Orbit Map
Orbit Altitude Analysis Chart
Orbit Inclination Analysis Chart
Orbit Comprehensive Analysis Chart
View Comprehensive Chart
Conjunction Data List
Event ID Objects TCA Miss Dist (km) Collision Risk Probability Collision Risk Index (CRI) Action
CDM_260907-203302-554406-779621
2026-09-07T
20:33:42+0000
1.344 km
极远距离
9.926984E-7 极低风险 0.35
CDM_260907-203302-670006-779621
2026-09-07T
20:33:42+0000
1.344 km
极远距离
9.926984E-7 极低风险 0.35
CDM_260907-203302-557506-779621
2026-09-07T
20:33:42+0000
1.344 km
极远距离
9.926984E-7 极低风险 0.35
CDM_260907-203303-608606-779621
POISK (36086)
2026-09-07T
20:33:42+0000
1.344 km
极远距离
9.926984E-7 极低风险 0.35
CDM_260907-220602-554406-779621
2026-09-07T
22:06:43+0000
1.387 km
极远距离
9.076325E-7 极低风险 0.34
CDM_260907-220603-608606-779621
POISK (36086)
2026-09-07T
22:06:43+0000
1.387 km
极远距离
9.076325E-7 极低风险 0.34
CDM_260907-220602-557506-779621
2026-09-07T
22:06:43+0000
1.387 km
极远距离
9.076325E-7 极低风险 0.34
CDM_260907-220602-670006-779621
2026-09-07T
22:06:43+0000
1.387 km
极远距离
9.076325E-7 极低风险 0.34
CDM_260907-233902-554406-779621
2026-09-07T
23:39:42+0000
1.430 km
极远距离
8.327397E-7 极低风险 0.33
CDM_260907-233902-670006-779621
2026-09-07T
23:39:42+0000
1.430 km
极远距离
8.327397E-7 极低风险 0.33